Hourly Weather Mahilyow

Today, 7 July, Tuesday

Time Temperature Precipitation Wind Pressure Humidity
00:00 +20°C° 0.3 mm 2 mps 740 mmHg 92%
01:00 +19°C° 0.3 mm 2 mps 740 mmHg 94%
02:00 +19°C° 0 mm 2 mps 740 mmHg 97%
03:00 +19°C° 0.2 mm 2 mps 740 mmHg 97%
04:00 +19°C° 0.2 mm 2 mps 740 mmHg 97%
05:00 +19°C° 0.2 mm 2 mps 740 mmHg 97%
06:00 +19°C° 0.2 mm 3 mps 740 mmHg 96%
07:00 +19°C° 0.2 mm 3 mps 740 mmHg 95%
08:00 +19°C° 0 mm 3 mps 741 mmHg 93%
09:00 +19°C° 0.1 mm 4 mps 741 mmHg 92%
10:00 +17°C° 0.1 mm 5 mps 741 mmHg 91%
11:00 +17°C° 0.1 mm 6 mps 741 mmHg 91%
12:00 +16°C° 0.1 mm 6 mps 741 mmHg 88%
13:00 +15°C° 0.1 mm 7 mps 742 mmHg 86%
14:00 +14°C° 0 mm 7 mps 742 mmHg 87%
15:00 +14°C° 0 mm 7 mps 742 mmHg 83%
16:00 +14°C° 0 mm 6 mps 742 mmHg 79%
17:00 +14°C° 0 mm 6 mps 742 mmHg 75%
18:00 +13°C° 0 mm 5 mps 742 mmHg 76%
19:00 +13°C° 0 mm 5 mps 742 mmHg 78%
20:00 +13°C° 0 mm 4 mps 742 mmHg 79%
21:00 +13°C° 0 mm 4 mps 742 mmHg 76%
22:00 +13°C° 0 mm 4 mps 742 mmHg 73%
23:00 +13°C° 0 mm 4 mps 742 mmHg 70%

Tomorrow, 8 July, Wednesday

Time Temperature Precipitation Wind Pressure Humidity
00:00 +13°C° 0 mm 4 mps 742 mmHg 73%
01:00 +13°C° 0 mm 4 mps 743 mmHg 77%
02:00 +13°C° 0 mm 4 mps 743 mmHg 80%
03:00 +13°C° 0 mm 4 mps 743 mmHg 81%
04:00 +13°C° 0 mm 4 mps 743 mmHg 83%
05:00 +13°C° 0 mm 4 mps 743 mmHg 84%
06:00 +13°C° 0 mm 4 mps 743 mmHg 83%
07:00 +14°C° 0 mm 4 mps 743 mmHg 81%
08:00 +14°C° 0 mm 4 mps 743 mmHg 80%
09:00 +17°C° 0 mm 4 mps 744 mmHg 74%
10:00 +18°C° 0 mm 4 mps 744 mmHg 69%
11:00 +19°C° 0 mm 4 mps 744 mmHg 64%
12:00 +20°C° 0.1 mm 4 mps 744 mmHg 62%
13:00 +20°C° 0.1 mm 4 mps 744 mmHg 60%
14:00 +20°C° 0.1 mm 4 mps 744 mmHg 58%
15:00 +20°C° 0 mm 4 mps 744 mmHg 59%
16:00 +20°C° 0 mm 4 mps 744 mmHg 60%
17:00 +20°C° 0 mm 4 mps 744 mmHg 61%
18:00 +19°C° 0 mm 3 mps 744 mmHg 67%
19:00 +17°C° 0 mm 3 mps 745 mmHg 73%
20:00 +16°C° 0 mm 2 mps 745 mmHg 79%
21:00 +15°C° 0 mm 2 mps 745 mmHg 81%
22:00 +14°C° 0 mm 2 mps 745 mmHg 84%
23:00 +13°C° 0 mm 2 mps 745 mmHg 86%

Day after tomorrow, 9 July, Thursday

Time Temperature Precipitation Wind Pressure Humidity
00:00 +13°C° 0 mm 2 mps 745 mmHg 89%
01:00 +12°C° 0 mm 2 mps 746 mmHg 92%
02:00 +12°C° 0 mm 2 mps 746 mmHg 95%
03:00 +12°C° 0 mm 2 mps 746 mmHg 94%
04:00 +12°C° 0 mm 2 mps 746 mmHg 94%
05:00 +12°C° 0 mm 2 mps 746 mmHg 93%
06:00 +13°C° 0 mm 2 mps 746 mmHg 88%
07:00 +15°C° 0 mm 2 mps 747 mmHg 82%
08:00 +16°C° 0 mm 2 mps 747 mmHg 76%
09:00 +17°C° 0.6 mm 2 mps 747 mmHg 74%
10:00 +18°C° 0.6 mm 2 mps 747 mmHg 72%
11:00 +18°C° 0.6 mm 2 mps 747 mmHg 70%
12:00 +19°C° 0.6 mm 2 mps 747 mmHg 69%
13:00 +19°C° 0.6 mm 2 mps 747 mmHg 68%
14:00 +20°C° 0.6 mm 3 mps 747 mmHg 66%
15:00 +20°C° 0.4 mm 3 mps 747 mmHg 67%
16:00 +20°C° 0.4 mm 3 mps 747 mmHg 67%
17:00 +20°C° 0.4 mm 3 mps 747 mmHg 67%
18:00 +18°C° 0.1 mm 3 mps 747 mmHg 72%
19:00 +17°C° 0.1 mm 2 mps 748 mmHg 76%
20:00 +15°C° 0.1 mm 2 mps 748 mmHg 81%
21:00 +14°C° 0 mm 2 mps 748 mmHg 83%
22:00 +13°C° 0 mm 2 mps 748 mmHg 86%
23:00 +13°C° 0 mm 2 mps 749 mmHg 88%

10 July, Friday

Time Temperature Precipitation Wind Pressure Humidity
00:00 +12°C° 0 mm 2 mps 749 mmHg 90%
01:00 +12°C° 0 mm 2 mps 749 mmHg 91%
02:00 +10°C° 0 mm 2 mps 749 mmHg 93%
03:00 +11°C° 0 mm 1 mps 749 mmHg 92%
04:00 +12°C° 0 mm 1 mps 749 mmHg 92%
05:00 +12°C° 0 mm 1 mps 749 mmHg 91%
06:00 +14°C° 0 mm 1 mps 749 mmHg 85%
07:00 +15°C° 0 mm 1 mps 750 mmHg 78%
08:00 +17°C° 0 mm 2 mps 750 mmHg 71%
09:00 +19°C° 0 mm 2 mps 750 mmHg 67%
10:00 +20°C° 0 mm 2 mps 750 mmHg 63%
11:00 +21°C° 0 mm 3 mps 750 mmHg 59%
12:00 +21°C° 0.2 mm 3 mps 750 mmHg 62%
13:00 +21°C° 0.2 mm 3 mps 750 mmHg 65%
14:00 +21°C° 0.2 mm 4 mps 750 mmHg 68%
15:00 +21°C° 0.1 mm 3 mps 750 mmHg 70%
16:00 +21°C° 0.1 mm 3 mps 749 mmHg 72%
17:00 +21°C° 0.1 mm 2 mps 749 mmHg 74%
18:00 +20°C° 0 mm 2 mps 749 mmHg 77%
19:00 +19°C° 0 mm 2 mps 749 mmHg 81%
20:00 +18°C° 0 mm 2 mps 749 mmHg 84%
21:00 +17°C° 0 mm 3 mps 749 mmHg 85%
22:00 +17°C° 0 mm 3 mps 749 mmHg 85%
23:00 +17°C° 0 mm 4 mps 749 mmHg 86%

11 July, Saturday

Time Temperature Precipitation Wind Pressure Humidity
00:00 +17°C° 0 mm 4 mps 749 mmHg 85%
01:00 +15°C° 0 mm 4 mps 749 mmHg 84%
02:00 +15°C° 0 mm 5 mps 749 mmHg 83%
03:00 +16°C° 0 mm 5 mps 749 mmHg 83%
04:00 +16°C° 0 mm 5 mps 749 mmHg 82%
05:00 +16°C° 0 mm 5 mps 748 mmHg 82%
06:00 +17°C° 0 mm 6 mps 748 mmHg 78%
07:00 +19°C° 0 mm 6 mps 748 mmHg 75%
08:00 +21°C° 0 mm 6 mps 748 mmHg 72%
09:00 +22°C° 0 mm 6 mps 749 mmHg 69%
10:00 +24°C° 0 mm 7 mps 749 mmHg 67%
11:00 +26°C° 0 mm 7 mps 749 mmHg 64%
12:00 +27°C° 0 mm 6 mps 749 mmHg 63%
13:00 +27°C° 0 mm 6 mps 749 mmHg 62%
14:00 +28°C° 0 mm 6 mps 748 mmHg 61%
15:00 +27°C° 0.2 mm 6 mps 748 mmHg 65%
16:00 +27°C° 0.2 mm 5 mps 748 mmHg 69%
17:00 +27°C° 0.2 mm 4 mps 748 mmHg 72%
18:00 +25°C° 0.5 mm 4 mps 748 mmHg 77%
19:00 +24°C° 0.5 mm 3 mps 748 mmHg 81%
20:00 +22°C° 0.5 mm 3 mps 748 mmHg 86%
21:00 +21°C° 0.7 mm 3 mps 748 mmHg 89%
22:00 +20°C° 0.7 mm 3 mps 748 mmHg 91%
23:00 +19°C° 0.7 mm 3 mps 748 mmHg 94%

12 July, Sunday

Time Temperature Precipitation Wind Pressure Humidity
00:00 +19°C° 1 mm 3 mps 748 mmHg 95%
01:00 +18°C° 1 mm 3 mps 748 mmHg 96%
02:00 +18°C° 1 mm 2 mps 748 mmHg 97%
03:00 +18°C° 0.7 mm 3 mps 748 mmHg 97%
04:00 +17°C° 0.7 mm 3 mps 748 mmHg 97%
05:00 +17°C° 0.7 mm 3 mps 748 mmHg 97%
06:00 +16°C° 0.2 mm 3 mps 748 mmHg 96%
07:00 +16°C° 0.2 mm 3 mps 748 mmHg 95%
08:00 +16°C° 0.2 mm 3 mps 748 mmHg 95%
09:00 +16°C° 0.5 mm 3 mps 748 mmHg 95%
10:00 +16°C° 0.5 mm 3 mps 748 mmHg 95%
11:00 +16°C° 0.5 mm 3 mps 748 mmHg 95%
12:00 +16°C° 0.1 mm 3 mps 748 mmHg 94%
13:00 +15°C° 0.1 mm 4 mps 748 mmHg 93%
14:00 +17°C° 0.1 mm 4 mps 748 mmHg 92%
15:00 +17°C° 0.1 mm 4 mps 748 mmHg 91%
16:00 +17°C° 0.1 mm 4 mps 748 mmHg 89%
17:00 +17°C° 0.1 mm 5 mps 748 mmHg 88%
18:00 +16°C° 0.1 mm 5 mps 748 mmHg 89%
19:00 +15°C° 0.1 mm 5 mps 748 mmHg 90%
20:00 +14°C° 0.1 mm 5 mps 748 mmHg 92%
21:00 +13°C° 0.9 mm 5 mps 748 mmHg 93%
22:00 +13°C° 0.9 mm 5 mps 748 mmHg 94%
23:00 +12°C° 0.9 mm 5 mps 748 mmHg 95%
Show more